Location: Bailleul
(50.3375°N, 2.8513°E)
Time: 03:29:57
(UTC+00:00)

Cosmos 1980 - Pass Details

Date: 27 October 2021
Orbit: 839 x 847 km, 71.0° (Epoch: 01 December)

Event Time Altitude Azimuth Distance (km) Brightness Sun altitude
Exits shadow 02:40:35 - 352° (N) 2,526 6.3 -36.5°
Reaches altitude 10° 02:40:51 10° 355° (N) 2,472 6.3 -36.5°
Maximum altitude 02:43:57 15° 28° (NNE) 2,151 6.3 -36.0°
Drops below altitude 10° 02:47:03 10° 62° (ENE) 2,470 6.9 -35.6°
Sets 02:50:43 0° 85° (E) 3,404 7.7 -35.1°
